Theta_e
346 347 348 348 348 349 348 347 346 345 344 343 342 341 340 340 340 340 339 339 338 337 335 334 333 333 334 335 337 336 336 336 335 338 340 339 338 340 340 338 339 339 336 336 338 337 337 338 339 341 342 342 341 343 346 345 342 340 339 337 337 337 335 334 333 331 331 332 332 331 333 335 332 330 331 331 332 332 332 331 331 331 331 333 333
345 346 346 347 348 348 348 348 347 347 346 346 345 344 343 342 341 341 340 339 338 337 336 334 333 333 333 334 336 336 336 336 335 337 339 338 336 336 336 335 337 339 337 335 336 335 335 336 336 338 340 341 341 340 344 347 348 347 344 340 338 339 338 336 336 335 335 335 334 333 333 334 333 333 332 333 334 334 334 334 333 334 334 333 334
347 345 345 346 346 347 348 348 347 347 347 347 346 345 345 343 342 341 340 338 337 336 336 336 334 333 333 334 335 335 335 335 334 336 336 335 334 334 335 334 336 341 339 335 337 338 338 337 335 335 337 339 340 338 338 342 343 345 344 341 339 338 338 337 337 336 336 336 336 335 336 336 335 334 333 333 334 333 334 334 333 334 334 334 334
351 346 343 344 345 346 347 347 347 348 348 347 347 347 347 346 342 340 338 338 338 336 335 335 335 333 333 334 334 335 335 334 334 334 333 333 333 333 335 334 335 340 339 336 337 340 341 341 338 336 337 337 337 335 334 335 335 336 336 336 336 336 337 337 337 337 337 336 335 334 335 335 334 334 334 333 333 333 333 333 333 333 334 335 337
354 350 344 343 345 346 346 347 347 348 347 349 349 349 350 350 346 340 337 339 339 337 336 336 336 334 333 334 334 334 334 333 333 332 332 332 334 333 334 333 334 337 338 336 336 338 340 341 338 336 336 336 335 334 333 333 333 334 334 335 335 334 335 335 334 335 335 334 334 333 333 332 332 332 333 333 334 334 334 333 334 335 334 335 337
356 353 348 344 344 344 345 346 347 347 347 349 351 351 351 353 351 343 337 338 338 337 336 335 335 335 334 333 333 333 333 333 332 332 331 332 333 334 334 334 334 335 337 337 336 337 336 336 335 334 334 334 333 333 332 332 332 333 332 333 333 333 334 333 334 335 335 334 333 333 333 332 333 334 334 335 336 335 335 337 337 338 339 338 336
357 355 352 347 344 344 345 345 347 348 347 348 351 352 352 353 353 349 341 336 338 339 337 336 334 335 335 333 333 333 333 333 332 331 331 331 332 333 333 333 334 334 334 334 334 335 335 333 332 332 332 332 332 332 332 332 332 332 332 332 332 333 334 334 337 340 343 343 340 338 337 334 334 337 340 343 344 339 337 341 341 341 342 340 337
357 356 353 350 347 344 344 346 345 346 346 346 349 352 353 353 354 353 346 338 340 341 339 337 334 333 334 334 333 333 333 333 332 332 331 330 330 332 333 333 332 332 332 332 332 334 334 332 332 332 331 330 331 331 332 332 332 331 331 332 333 334 335 336 337 339 345 349 350 347 345 343 342 344 347 351 352 348 347 349 348 346 344 341 340
356 356 354 349 346 344 345 347 345 345 346 346 347 349 351 352 352 352 347 342 342 343 342 342 339 334 333 333 333 333 332 333 332 332 331 330 329 330 331 332 332 332 332 331 332 333 332 333 333 332 331 330 329 330 331 331 332 332 332 332 334 337 338 339 341 342 345 351 353 352 352 352 352 352 353 354 354 353 355 356 352 349 347 346 345
357 356 353 348 346 345 346 346 345 345 346 345 346 347 348 349 350 349 346 344 344 344 344 346 346 341 335 332 333 333 331 332 332 331 330 329 329 328 330 331 331 331 331 331 331 331 331 331 331 331 331 330 330 330 330 331 331 332 332 333 335 337 338 340 344 346 347 350 353 354 354 354 354 354 354 354 354 354 356 356 353 350 350 348 345
356 353 351 350 349 347 345 345 345 344 345 345 346 347 347 348 348 348 347 346 345 345 345 345 347 348 343 335 332 332 332 331 331 330 330 329 328 328 329 329 330 331 331 330 330 329 329 329 329 329 329 330 330 329 330 331 331 331 332 332 333 336 337 338 341 343 347 352 354 354 354 354 354 354 354 355 355 355 355 354 353 351 348 345 343
355 353 352 352 349 347 345 345 345 345 344 344 345 345 347 347 348 347 347 347 346 346 346 345 346 349 348 343 338 335 332 332 331 330 330 329 329 328 327 328 329 329 329 329 328 328 328 328 328 329 328 329 329 329 329 330 331 331 331 332 332 334 336 338 339 341 345 350 354 355 355 355 355 356 355 355 356 356 355 352 350 349 346 345 348
356 354 353 352 349 346 346 345 346 345 345 344 345 345 346 346 347 347 347 348 347 347 347 347 346 347 348 348 343 339 336 333 331 330 330 329 329 328 327 327 328 328 328 327 328 327 327 328 328 328 328 329 329 329 330 330 330 331 331 331 333 334 335 337 339 341 344 346 351 355 355 354 356 357 356 357 358 356 354 352 348 347 348 350 352
357 355 353 351 348 346 346 346 346 346 344 345 344 345 346 346 347 347 347 348 347 347 347 347 347 347 347 347 345 341 340 336 331 330 331 330 329 328 328 328 328 328 328 327 327 327 327 328 328 327 328 329 329 330 330 330 330 331 331 332 334 335 337 339 341 343 345 346 349 352 354 354 356 358 357 358 359 357 355 352 348 350 351 352 352
358 356 353 350 347 346 346 347 346 346 346 345 345 345 346 346 347 347 348 347 347 348 347 347 348 348 347 348 346 343 341 338 332 330 330 330 330 329 329 329 329 329 329 328 327 327 327 327 328 328 328 328 329 330 330 330 331 331 333 335 336 339 343 347 349 349 348 349 349 351 353 355 357 357 357 359 359 357 355 351 350 352 353 353 353
358 357 352 349 348 347 347 347 347 347 346 346 346 345 346 346 347 347 348 348 348 348 347 348 348 348 347 348 347 346 344 340 335 330 330 330 331 331 330 331 331 330 329 329 328 328 328 328 328 327 328 329 330 330 330 331 333 333 334 337 338 343 349 354 355 355 355 355 354 354 356 358 358 358 358 358 357 356 354 351 351 353 353 354 354
356 354 351 349 347 347 347 347 347 347 347 347 346 347 346 346 346 347 347 348 348 348 348 348 348 348 349 348 348 348 346 344 339 334 333 331 332 332 331 332 331 331 330 329 329 329 328 328 328 328 329 329 329 330 331 332 334 335 337 339 341 346 352 356 357 357 357 356 357 358 358 358 358 359 358 358 358 357 355 354 354 354 354 354 353
353 351 349 347 347 347 347 347 347 347 347 348 347 347 347 347 347 347 347 347 348 348 348 348 348 348 349 349 349 348 348 347 344 340 338 337 336 335 335 335 333 332 331 330 330 330 329 329 329 329 329 330 330 331 332 333 336 338 340 341 342 348 354 357 357 357 357 358 358 359 359 359 360 359 358 358 358 357 355 355 353 351 349 346 341
350 347 347 347 347 347 347 346 348 347 348 348 348 347 348 347 347 348 347 347 348 348 348 348 348 349 349 349 350 349 349 349 348 344 343 342 341 341 340 340 338 335 333 332 332 331 330 330 330 330 331 331 331 332 334 335 339 341 342 345 349 353 356 357 357 358 359 359 359 359 359 359 360 359 359 359 358 356 355 352 346 342 338 333 329
348 346 347 347 347 346 347 347 347 348 348 349 348 348 348 347 347 347 347 348 348 347 348 348 348 348 349 349 351 350 350 351 350 348 347 346 345 345 346 345 343 338 336 335 334 334 332 330 331 330 330 331 332 334 336 338 341 344 346 349 353 355 357 357 358 359 359 359 359 359 360 360 360 360 360 359 355 351 347 340 334 330 328 328 330
347 347 346 347 347 346 347 347 348 348 349 349 349 349 348 348 348 347 348 348 348 348 349 349 350 350 350 350 351 351 351 352 352 351 350 348 348 349 350 349 346 343 343 341 339 338 336 334 334 332 331 332 335 337 339 341 344 347 348 350 352 354 355 356 358 359 358 359 360 359 360 360 360 360 359 354 350 346 340 332 328 328 331 336 340
347 347 347 347 347 347 348 347 348 348 348 349 349 348 348 349 349 348 349 348 350 350 350 350 351 352 354 353 353 352 352 353 355 355 354 354 352 353 353 352 350 349 349 346 344 343 341 340 339 337 335 335 338 341 343 345 347 349 350 351 352 353 355 357 358 359 359 359 359 359 361 361 360 358 353 346 342 339 336 332 330 330 332 335 337
346 347 347 347 347 347 348 347 348 348 349 349 349 349 349 350 350 350 350 351 352 352 353 353 354 355 356 357 357 356 355 355 356 357 357 358 357 356 356 354 353 353 352 351 350 349 349 349 347 344 341 341 344 346 347 348 349 350 352 353 354 355 357 358 358 359 360 360 360 361 361 359 355 350 343 336 332 329 327 328 327 327 326 327 326
348 347 347 348 348 348 348 348 349 349 349 349 349 350 350 350 351 352 352 352 353 354 355 356 358 358 359 360 360 361 361 360 359 359 359 360 359 359 358 357 357 355 355 355 355 355 356 356 355 352 348 347 349 350 350 351 352 352 353 355 355 356 358 358 359 360 359 360 362 361 358 353 347 340 332 328 326 325 325 325 324 324 324 324 324
349 348 348 348 349 349 349 349 349 349 350 350 350 350 351 351 351 352 352 353 354 355 356 358 359 360 361 362 362 363 363 362 362 361 360 361 361 361 360 360 359 358 357 357 357 357 357 357 358 356 352 351 352 353 352 353 353 354 355 356 357 359 359 359 360 360 360 361 361 356 348 343 337 331 327 326 325 325 324 324 324 323 323 324 324
348 348 348 349 349 349 350 350 350 350 351 352 352 350 351 352 352 352 353 354 354 355 357 359 359 358 360 363 363 363 364 364 363 363 362 361 362 361 361 361 361 360 359 358 358 357 357 356 356 355 353 353 353 354 354 354 355 356 357 358 359 359 360 360 360 360 360 360 355 346 338 333 329 326 326 325 325 324 324 323 323 323 324 324 324
349 349 349 349 349 349 350 350 352 353 353 355 357 355 352 353 354 353 352 354 355 355 357 359 361 360 362 363 364 364 364 364 364 363 363 362 363 363 362 362 362 361 360 359 359 358 357 356 355 355 354 355 354 354 355 356 356 358 358 359 359 360 360 360 360 360 359 353 344 336 330 327 326 326 324 324 324 323 323 322 322 323 323 323 323
350 350 350 350 350 350 351 350 354 357 356 355 358 359 357 355 357 356 354 355 357 356 357 359 362 363 364 364 364 365 365 364 365 365 364 363 363 362 363 363 362 362 361 360 359 358 357 356 355 355 355 355 354 355 356 357 358 358 359 359 360 360 360 359 359 357 352 343 333 328 326 325 325 324 324 324 323 322 321 321 321 321 321 321 321
351 350 350 351 351 352 352 350 352 358 360 357 357 359 360 361 362 361 360 358 358 359 360 362 362 363 364 365 365 366 366 366 366 366 365 363 363 363 363 363 363 362 361 360 359 358 357 356 356 355 355 355 354 355 356 357 358 359 359 360 359 359 359 357 354 348 340 332 327 326 325 324 324 324 323 322 321 320 320 319 319 319 319 319 320
351 351 351 352 351 351 352 352 352 356 362 363 360 356 358 361 362 363 364 363 361 360 362 363 364 364 365 366 366 366 366 366 366 365 363 362 362 363 362 362 362 361 361 360 359 357 356 356 355 355 355 355 355 356 357 358 359 359 359 359 358 356 353 348 341 334 328 326 325 325 324 324 323 323 322 320 319 319 319 318 319 319 318 319 320
351 352 352 352 352 352 352 355 356 355 359 366 366 360 356 359 359 359 362 363 362 362 362 362 363 364 364 364 365 365 365 365 364 363 363 362 362 361 361 361 361 361 360 360 359 358 356 355 355 356 356 357 357 357 357 358 360 361 360 357 353 349 343 336 329 327 325 325 324 324 324 324 323 321 320 319 319 320 319 319 319 318 318 319 319
353 356 355 354 353 355 355 356 358 357 358 364 368 364 360 358 358 358 359 360 361 361 361 361 361 362 362 362 363 363 364 363 363 362 362 362 362 362 361 361 361 361 360 359 359 358 356 355 355 357 358 358 357 356 355 357 359 358 354 349 346 341 334 328 326 325 324 324 324 324 323 322 321 321 320 319 320 321 320 319 319 318 318 319 318
362 363 364 362 360 359 360 362 363 364 363 364 364 362 359 358 359 359 359 359 360 360 360 360 361 361 361 361 362 362 362 362 362 362 362 362 362 362 361 362 361 361 361 360 360 359 358 357 356 356 356 355 356 356 356 356 355 350 345 340 335 331 327 325 325 324 323 324 324 323 323 322 321 322 322 322 322 323 322 322 321 319 318 319 318
366 365 368 368 366 364 364 366 366 364 363 361 359 358 359 359 359 359 358 359 359 360 359 360 360 360 360 360 360 361 361 362 362 363 363 363 362 362 362 362 362 362 362 361 361 361 361 360 359 358 356 354 354 355 355 353 348 342 337 332 328 326 324 323 324 323 323 324 323 322 323 322 321 323 324 323 323 324 324 324 323 321 318 318 318
364 365 365 365 364 362 362 364 362 359 358 357 357 357 358 358 359 359 358 358 358 358 358 359 359 359 359 360 360 361 361 361 362 363 363 364 363 363 363 363 363 363 363 363 363 363 362 361 360 358 356 355 355 354 352 346 339 333 329 326 324 324 323 323 323 323 323 324 323 321 322 322 321 323 325 324 323 324 325 324 324 322 319 318 319
361 361 360 360 360 361 362 362 361 358 357 356 356 357 359 358 358 358 357 357 357 357 358 357 358 358 359 359 360 360 361 362 362 363 364 364 364 364 364 364 363 364 364 364 364 363 362 360 359 357 355 354 353 349 343 335 329 326 325 324 323 324 323 323 323 322 322 323 321 320 322 324 323 323 326 326 325 326 325 324 324 324 321 319 320
359 359 359 359 359 360 360 361 360 359 358 357 357 359 359 358 358 357 356 356 357 358 358 358 358 358 359 358 360 361 361 362 363 364 365 365 365 365 365 364 363 363 363 363 362 362 359 356 354 354 351 348 345 339 332 327 325 324 324 323 323 324 323 323 322 321 321 322 321 320 323 324 322 321 324 326 326 326 325 324 324 324 323 321 322
358 358 359 360 360 360 361 362 362 362 360 359 358 359 357 357 356 357 357 358 359 359 359 359 359 359 359 360 360 362 363 363 364 365 366 366 364 364 364 363 363 361 360 357 355 355 352 346 342 341 340 337 333 329 326 324 323 322 323 322 322 322 322 322 321 319 321 323 325 324 324 325 324 322 324 326 326 326 325 325 325 324 324 324 323
354 356 358 359 359 360 362 364 364 364 363 362 361 360 359 358 358 357 359 360 360 359 360 360 361 361 361 361 361 362 362 363 363 363 362 361 359 357 357 358 358 355 353 349 345 345 343 338 332 329 328 327 325 324 323 322 322 321 322 322 322 321 321 322 321 320 322 326 327 326 325 325 324 323 324 326 325 325 325 326 325 325 325 325 324
349 351 352 354 355 358 360 363 363 364 364 364 362 362 362 361 360 360 361 361 359 360 360 360 360 360 359 358 358 358 357 357 357 354 351 350 349 348 347 349 348 345 341 338 336 334 332 328 325 324 324 323 323 322 321 321 322 321 321 322 322 321 322 323 324 325 326 327 326 326 326 326 325 324 326 325 323 323 325 326 325 325 324 324 324
346 346 348 349 351 354 357 360 360 362 363 362 361 361 361 361 361 361 361 360 360 360 360 357 354 353 352 352 352 352 351 351 351 347 344 343 342 339 336 335 333 331 329 328 328 326 325 323 322 323 323 322 321 321 321 322 321 321 320 320 322 323 324 324 325 325 325 325 326 326 327 327 325 323 324 324 323 324 325 325 324 324 324 324 324
344 344 346 347 349 351 354 356 358 359 359 359 358 357 357 357 358 358 357 357 358 359 357 353 349 346 346 346 346 346 347 348 347 345 343 341 338 334 330 328 327 326 327 327 326 326 323 322 322 322 321 321 321 321 321 321 321 320 320 319 321 323 325 326 326 324 323 324 326 326 325 324 323 323 323 324 324 325 325 325 324 325 325 324 323
342 342 343 346 347 349 350 352 353 354 355 354 354 353 351 351 352 352 351 352 353 353 350 347 344 342 342 341 340 341 344 344 342 339 337 334 330 328 326 325 325 325 325 324 323 322 321 321 321 321 321 321 321 321 320 320 320 320 320 320 319 320 323 325 324 322 320 321 323 322 321 321 323 324 325 325 325 325 325 325 325 324 324 324 324
341 341 342 343 345 347 348 348 349 350 349 349 349 347 346 347 347 346 345 346 345 343 341 339 336 335 333 332 332 334 335 335 333 331 329 327 325 323 323 323 322 322 322 321 321 321 320 320 320 320 320 320 320 319 319 319 319 319 319 319 319 319 319 320 320 320 319 319 319 319 319 320 322 324 324 324 324 325 325 325 325 325 324 324 324
339 339 340 341 343 345 345 346 346 346 345 344 344 343 342 342 342 339 337 337 336 335 334 332 329 327 326 326 327 327 328 327 325 325 324 323 322 322 321 321 321 321 320 320 320 320 319 320 319 319 319 319 319 319 319 319 319 319 319 319 319 319 319 319 319 319 319 319 318 318 318 319 320 322 323 324 324 324 324 325 325 325 325 324 324
337 338 339 339 340 341 343 343 344 344 343 341 340 337 336 335 333 332 331 332 332 331 330 328 327 326 326 326 325 325 324 324 323 323 322 321 321 321 321 320 320 320 320 320 321 320 320 320 320 320 320 320 319 319 319 319 318 318 318 318 318 318 318 318 318 318 318 318 318 318 318 318 319 319 320 322 323 323 324 324 325 325 325 325 324
337 338 339 339 338 338 340 341 341 341 341 340 337 335 333 331 330 330 330 329 329 329 328 327 327 327 326 325 324 323 323 323 323 323 323 322 322 322 322 322 322 322 323 323 323 323 323 323 323 323 323 323 322 322 321 321 321 321 321 321 321 321 321 321 321 322 322 322 322 323 323 323 323 322 322 323 324 325 325 325 325 325 325 325 324
336 337 338 339 339 338 338 338 339 339 339 339 337 334 332 331 330 330 329 328 328 328 328 328 327 326 325 324 324 324 323 323 324 324 324 324 324 324 324 324 325 325 326 326 326 326 326 326 326 326 326 326 326 326 326 326 326 326 325 325 325 325 324 324 324 324 325 325 325 325 325 325 324 324 323 323 324 324 324 325 325 324 324 324 323
335 335 336 338 338 337 336 336 336 337 337 336 335 332 331 329 329 328 328 328 328 328 328 327 326 325 325 325 325 325 325 325 325 325 325 325 325 326 326 326 327 327 327 328 328 328 328 327 327 327 327 326 326 326 326 325 325 325 324 324 323 323 323 323 323 323 323 322 322 322 322 322 322 321 322 322 322 322 323 323 323 323 323 323 323
333 334 335 335 335 335 335 334 335 336 336 336 334 332 330 329 328 327 326 326 326 326 326 325 325 325 325 326 326 326 326 326 326 326 327 327 326 326 327 327 327 327 327 327 326 326 326 325 325 324 323 323 322 322 321 321 321 322 321 321 321 321 321 321 321 321 321 321 321 321 320 320 320 319 319 319 320 321 322 322 322 322 322 321 321
331 332 333 333 333 333 332 331 332 333 334 334 333 331 329 328 327 327 327 326 326 326 326 326 326 327 326 327 327 327 327 327 327 327 327 326 325 324 324 323 323 322 322 322 322 322 321 321 321 321 320 320 320 320 319 319 319 318 318 318 318 318 318 318 318 319 319 319 319 319 319 319 319 319 319 319 319 320 320 320 321 321 321 320 320
Wind_Speed
42 41 40 38 38 36 35 34 34 34 34 34 34 34 33 32 31 30 29 29 29 28 28 27 26 25 23 22 21 21 21 21 21 20 19 19 18 18 18 17 16 16 15 14 14 13 13 12 12 12 11 11 11 11 11 11 11 11 11 12 11 11 12 11 14 16 16 14 15 16 16 16 18 18 17 17 18 20 21 21 22 23 23 24 24
44 43 41 41 40 38 36 35 34 34 33 34 34 34 34 32 31 30 30 29 29 28 28 27 27 26 25 24 23 22 22 21 21 21 20 21 20 20 19 19 18 17 16 15 15 15 14 13 13 13 12 12 12 12 12 12 11 11 12 12 12 12 13 14 14 17 19 18 17 19 19 19 20 20 19 19 18 19 21 22 23 23 24 23 23
44 44 43 42 41 39 37 36 35 34 33 33 33 33 32 31 30 30 30 29 28 28 28 28 28 27 26 26 25 24 23 22 21 21 21 22 21 21 20 20 19 17 17 16 15 15 15 14 14 14 14 14 13 13 14 14 14 13 13 14 14 14 15 16 16 17 20 20 20 20 20 21 22 22 23 23 22 22 23 23 24 24 25 25 25
41 43 44 43 41 40 39 37 36 35 34 34 33 32 31 30 30 30 29 28 28 28 28 28 28 28 28 28 27 26 25 24 22 22 22 22 22 22 22 22 20 18 18 18 16 16 15 15 15 15 16 17 16 15 16 16 16 16 16 16 16 16 16 18 18 19 20 22 23 22 22 23 24 24 24 25 25 26 26 26 26 26 26 25 25
39 42 44 43 42 42 40 39 37 36 35 35 34 32 30 29 29 29 29 28 28 28 28 28 28 29 29 29 28 28 27 25 24 23 22 22 22 22 22 23 22 21 20 19 18 18 17 17 16 16 18 18 18 17 17 17 17 17 17 17 17 17 17 18 19 20 22 23 25 25 25 26 27 26 26 26 26 27 28 29 29 29 28 26 25
38 40 42 43 43 42 41 40 39 37 36 35 33 32 30 29 29 29 29 29 29 29 29 28 29 29 30 30 29 29 28 27 26 25 24 23 23 23 23 23 23 22 21 20 20 20 20 20 19 18 19 19 19 18 18 18 18 17 18 17 18 18 19 20 20 21 22 23 25 26 27 28 28 28 28 28 27 27 28 28 27 27 27 28 28
38 39 41 41 42 43 42 41 40 38 37 36 34 32 31 30 29 29 30 30 30 30 29 29 29 30 30 29 29 30 29 28 27 26 25 25 25 25 24 24 24 24 23 22 22 22 21 21 20 20 20 20 19 19 19 19 19 19 19 20 20 20 21 21 20 19 19 20 22 24 26 28 28 27 26 23 23 25 26 26 26 26 26 29 31
39 40 41 41 42 42 42 41 41 40 38 37 35 33 32 30 30 30 30 30 30 29 29 30 30 31 30 30 30 30 30 29 29 28 27 27 27 27 26 26 25 25 25 24 24 23 23 22 21 21 21 20 20 20 20 21 21 21 21 22 22 22 22 22 22 21 19 18 19 21 22 24 25 23 19 15 15 18 20 23 25 26 27 30 31
39 40 41 43 42 42 41 41 41 40 39 38 37 36 34 33 32 32 32 31 29 29 29 29 30 31 31 30 30 30 30 30 30 29 28 28 28 29 28 28 27 27 26 26 25 25 24 24 23 23 23 22 21 21 21 22 22 22 22 23 23 22 22 22 21 22 20 18 17 18 18 19 19 17 15 13 14 15 15 18 25 27 28 31 33
40 41 43 44 44 42 42 42 42 41 41 39 38 37 36 35 34 34 34 32 30 30 30 29 29 29 31 31 31 31 31 31 31 31 29 29 29 29 30 29 29 29 28 27 27 26 25 25 25 25 25 24 23 22 22 23 23 23 23 23 23 23 23 23 21 21 21 20 17 16 17 18 18 15 15 14 14 14 14 18 24 27 29 34 38
42 44 44 44 44 43 42 42 42 42 41 40 39 37 37 36 36 35 35 33 32 32 31 31 30 29 30 31 32 32 32 32 32 31 30 29 29 30 30 30 30 31 30 29 29 28 27 27 26 26 26 25 24 24 24 24 24 24 24 24 24 24 24 25 25 25 23 20 18 17 17 19 19 17 16 15 13 13 14 18 25 28 31 37 40
43 45 44 43 44 44 43 42 42 42 42 40 39 37 36 36 36 36 35 34 34 34 33 33 33 31 30 31 32 32 33 33 33 32 30 29 30 30 31 31 32 32 32 31 30 29 29 28 28 28 27 26 26 26 26 25 26 26 26 26 26 26 26 27 27 27 25 22 20 18 18 20 19 17 17 17 16 15 11 16 25 30 33 38 39
41 44 43 43 45 44 43 42 42 42 42 40 39 37 36 37 37 37 36 35 35 35 35 34 34 34 33 32 33 33 33 33 33 31 30 29 30 31 31 32 33 33 33 32 31 31 30 30 29 29 28 28 28 27 27 27 27 28 27 27 27 27 28 28 28 28 28 27 25 20 17 19 19 17 18 17 18 16 10 13 24 30 34 37 37
39 42 44 44 45 43 42 42 42 42 42 40 39 38 37 37 37 37 36 36 36 36 36 35 35 35 35 35 35 34 33 34 33 31 29 29 30 31 32 33 33 34 34 34 33 32 31 31 31 30 29 30 30 29 29 28 28 28 28 28 28 28 28 27 27 28 28 29 29 25 21 21 19 20 19 16 17 16 12 15 24 29 33 34 34
36 40 43 44 43 42 41 42 42 42 42 40 39 38 38 38 37 37 36 37 37 36 36 35 36 36 35 35 36 36 35 35 34 32 29 29 30 31 32 33 34 35 35 35 34 33 33 32 32 31 31 31 31 30 30 29 28 28 27 28 28 26 24 22 22 24 24 25 27 25 21 18 17 19 18 16 19 17 13 19 27 29 31 33 33
35 38 42 43 42 41 41 42 42 42 41 41 40 39 39 38 38 37 37 37 37 36 36 35 35 35 35 35 35 36 36 36 36 33 31 30 30 31 32 34 35 36 36 36 35 35 34 34 33 33 33 32 31 31 30 28 27 27 27 27 27 25 21 18 18 20 20 20 21 20 19 16 16 19 18 18 22 18 14 20 27 27 28 30 31
38 41 42 42 40 40 40 41 41 41 41 41 41 40 40 39 38 38 38 37 37 37 36 35 34 34 34 35 35 35 35 36 36 35 33 32 32 33 34 35 36 37 37 37 36 36 36 35 34 34 34 33 32 32 30 27 26 26 27 27 26 24 20 16 17 19 20 20 20 21 21 19 19 21 20 19 22 20 18 20 21 20 24 28 30
42 43 42 40 39 39 39 39 39 40 41 41 41 40 40 40 39 38 37 37 36 36 35 34 34 34 34 35 35 34 34 35 36 35 34 33 33 33 34 36 36 37 37 37 37 37 37 36 35 35 35 34 33 32 29 27 25 25 26 26 26 24 18 15 16 18 19 21 22 22 22 21 20 20 19 20 20 18 17 18 16 18 23 26 29
43 42 40 38 37 37 37 37 38 39 40 40 40 40 40 38 37 36 36 35 35 34 34 34 34 34 34 35 34 34 34 34 35 35 34 33 32 33 34 35 36 37 37 38 37 37 37 37 36 36 35 33 33 31 28 26 25 24 24 24 23 20 16 14 16 17 18 20 20 20 21 20 20 20 18 18 15 11 12 16 16 17 21 23 25
40 38 37 37 36 36 35 35 36 37 39 39 39 39 38 36 36 35 35 35 34 34 35 35 35 35 35 34 34 34 33 33 34 35 34 33 33 32 33 35 36 37 37 37 37 37 37 37 37 36 35 33 32 30 27 25 24 23 22 22 21 18 15 15 16 18 19 20 19 20 20 19 20 19 15 14 12 10 12 16 16 16 19 21 22
37 36 37 36 35 34 34 34 35 35 36 37 37 37 36 35 35 35 34 34 34 34 35 34 34 34 34 34 34 34 33 33 33 34 34 34 33 32 34 35 36 36 36 36 36 36 36 37 37 36 35 32 29 27 25 24 24 23 24 25 23 21 18 17 18 19 19 18 17 16 17 19 20 15 10 9 9 9 11 13 14 16 17 18 18
36 35 35 35 33 32 32 32 33 33 34 34 34 34 34 34 34 34 33 33 34 34 35 34 33 32 32 32 33 33 34 33 33 33 34 33 32 32 34 35 35 35 35 36 36 36 36 36 36 36 34 30 25 24 24 24 25 25 25 25 24 22 21 20 20 19 19 18 16 16 19 21 16 9 6 6 6 7 8 9 11 14 15 17 19
35 34 34 33 32 31 31 31 31 32 33 32 32 33 33 33 34 34 32 33 33 32 31 30 30 29 29 28 28 28 30 31 32 33 32 32 31 32 32 33 34 34 34 34 34 32 30 29 29 31 31 26 22 23 24 24 26 26 25 24 22 21 21 21 20 20 20 19 19 21 21 16 8 5 9 10 10 11 11 11 12 14 15 17 17
34 34 33 33 32 32 31 31 30 31 31 31 31 32 32 32 33 32 31 31 31 30 28 25 24 24 24 24 23 22 22 25 28 31 31 30 30 30 30 30 31 31 31 30 27 23 20 20 20 23 25 22 20 22 23 24 25 25 24 23 22 21 21 21 20 20 20 20 22 20 14 8 7 9 13 14 14 15 16 16 16 16 14 14 14
34 33 32 32 32 31 30 29 28 29 30 30 30 31 30 31 32 31 30 29 29 29 27 24 23 23 22 21 22 22 21 22 24 27 29 29 28 28 28 28 28 28 29 28 24 21 21 21 21 21 22 20 20 21 22 24 24 24 23 22 21 21 21 20 19 19 20 20 19 14 8 8 12 14 15 15 16 17 18 18 17 16 15 14 13
31 29 29 29 29 28 27 27 27 27 28 28 28 28 28 29 30 30 29 29 28 28 25 23 24 25 23 21 21 22 22 22 22 23 26 27 27 26 26 26 26 26 26 26 26 25 25 25 24 22 21 20 20 21 22 23 23 22 23 22 22 22 22 20 19 19 19 17 14 12 11 13 14 15 15 16 17 17 17 16 15 15 15 15 14
27 27 27 26 26 26 26 26 26 26 27 27 26 26 27 27 28 28 29 29 29 29 27 24 23 25 23 22 21 21 22 23 23 22 23 24 25 25 24 24 25 26 27 27 27 26 26 25 24 22 21 21 21 22 23 23 23 22 23 22 22 22 20 19 19 18 16 13 12 13 13 13 14 15 16 16 16 16 15 15 14 14 14 14 15
26 26 27 27 27 27 27 27 26 25 26 27 26 25 26 26 27 28 28 28 28 28 28 27 25 24 23 22 22 22 23 24 22 20 20 21 22 23 23 24 25 26 27 26 25 24 24 24 23 22 23 23 22 23 24 24 22 22 22 21 21 20 18 17 16 14 13 12 12 12 12 12 14 15 14 14 14 14 13 13 13 12 13 15 16
27 27 28 28 28 28 27 27 26 25 24 25 26 26 26 26 26 25 25 27 28 27 27 26 25 25 24 23 22 22 22 21 19 17 17 19 20 20 21 22 22 23 23 22 22 23 24 24 23 24 24 24 22 23 24 23 22 22 22 21 19 17 15 14 13 12 12 11 11 11 11 12 13 13 12 11 11 11 11 12 13 13 15 17 17
29 28 28 28 27 27 27 26 26 26 23 22 25 29 29 28 28 27 25 27 28 28 27 26 24 24 23 22 21 21 20 19 19 17 17 16 15 17 18 18 18 18 19 20 21 22 22 21 21 22 22 22 21 22 23 23 23 22 21 20 17 14 12 12 12 11 11 10 9 10 10 11 11 10 8 7 8 10 11 13 14 16 17 18 17
27 27 27 27 26 26 27 26 26 27 25 22 23 29 31 30 30 30 29 29 29 28 28 27 27 26 25 22 21 20 20 19 19 18 17 15 14 15 17 17 17 18 18 19 21 21 19 18 20 21 22 22 21 21 22 23 23 21 17 15 13 12 11 11 11 11 10 9 9 10 10 10 9 7 5 6 7 9 12 14 16 17 18 17 17
24 23 23 25 27 27 27 26 27 28 27 24 23 28 31 30 30 31 31 31 30 30 29 28 27 27 27 25 24 23 21 18 17 17 17 16 15 15 17 18 19 19 20 20 21 20 18 16 17 20 22 22 22 23 23 22 19 16 14 14 13 12 12 11 11 10 9 8 9 9 9 8 5 3 4 6 8 9 12 14 16 18 18 18 17
16 16 16 18 21 24 23 20 20 21 21 23 26 30 30 29 29 30 32 32 32 32 31 30 28 27 26 25 25 25 23 19 17 17 18 17 17 17 18 19 20 21 22 22 23 22 21 19 19 21 23 22 22 22 21 18 16 15 14 13 12 12 11 11 10 9 8 8 7 7 6 4 2 2 4 6 8 10 12 13 15 18 20 20 19
12 13 15 14 15 18 18 15 15 17 19 22 26 27 27 26 26 27 28 29 30 31 31 31 30 29 26 24 24 23 22 20 18 18 19 19 19 20 19 19 20 22 23 24 26 26 26 25 25 25 24 21 19 19 18 16 15 15 14 14 13 13 11 10 9 8 8 7 6 5 4 2 0 1 4 6 7 9 11 11 13 17 21 21 21
12 14 18 17 15 16 16 15 17 21 23 24 24 23 22 22 20 16 17 20 25 29 30 29 29 28 26 24 23 22 21 20 19 18 19 20 21 21 21 21 22 23 24 26 27 26 26 26 25 23 21 19 18 18 17 15 13 13 13 13 13 12 11 9 9 9 7 6 6 5 4 2 1 2 3 6 8 9 9 10 11 15 18 20 20
8 10 14 15 14 12 13 15 18 22 23 23 22 19 16 15 14 14 15 19 22 23 24 24 25 25 24 23 22 21 20 20 19 18 18 19 20 22 23 24 24 24 25 27 26 24 23 23 23 22 21 20 18 16 15 14 13 12 12 13 12 11 11 10 10 9 8 7 7 5 4 2 2 3 3 5 7 8 9 10 10 12 16 19 19
8 8 9 11 13 13 14 15 16 18 19 17 15 14 14 14 16 19 20 19 19 18 17 18 19 20 20 19 19 18 18 18 18 18 18 18 20 22 23 22 22 24 25 24 22 21 21 22 23 22 20 18 17 16 15 15 14 12 12 13 14 13 12 11 10 9 8 7 6 4 3 2 3 4 4 5 6 6 8 9 9 10 13 17 16
11 12 12 12 12 13 14 14 13 14 14 14 15 16 18 19 19 19 17 15 14 14 14 14 13 13 15 16 16 16 17 18 19 19 20 20 21 21 21 20 21 23 23 21 20 20 21 21 21 20 19 18 17 17 16 15 13 13 13 14 14 13 11 10 10 9 7 7 6 4 2 2 3 5 5 5 5 7 8 9 9 10 11 11 11
6 8 10 10 10 10 12 13 14 14 13 13 14 16 16 17 17 15 14 13 13 13 12 11 11 11 13 14 15 16 17 19 20 20 21 20 19 17 18 19 20 20 19 19 20 20 20 18 18 17 17 17 16 16 16 15 14 14 14 13 12 12 10 9 9 9 8 6 6 4 3 2 4 6 6 5 5 7 8 8 9 11 10 10 11
5 5 7 7 7 10 12 14 14 14 13 12 12 14 14 15 15 14 13 13 13 13 13 13 14 16 17 19 19 19 20 20 20 20 21 21 19 18 19 20 20 20 20 21 22 21 20 19 18 17 17 17 17 17 16 16 15 15 15 14 13 12 11 11 9 8 7 7 6 5 3 4 5 5 5 5 7 8 9 9 10 11 11 12 12
5 5 5 5 4 7 11 13 13 13 12 11 11 12 13 13 13 14 14 15 16 17 18 20 22 23 23 22 22 21 21 21 21 22 24 24 23 22 23 23 23 23 23 22 21 21 22 23 22 21 20 20 19 18 18 17 16 15 15 15 13 11 10 10 10 9 8 7 6 5 4 5 6 6 6 7 8 9 9 10 11 11 11 12 13
5 5 6 5 2 2 7 10 12 13 12 11 10 11 11 11 13 14 16 18 19 20 22 24 24 22 21 21 20 20 20 21 22 25 27 28 27 27 28 29 28 26 24 22 20 20 22 23 22 20 19 19 18 17 18 17 17 16 16 15 15 13 10 7 8 10 10 8 6 7 8 9 9 9 9 9 10 10 11 12 12 12 11 12 13
5 7 9 8 5 1 3 7 10 12 12 12 12 12 12 12 13 15 17 19 21 22 23 24 23 21 20 19 18 19 20 21 23 25 27 27 27 27 28 28 26 23 22 21 19 18 17 16 15 15 15 14 14 15 15 15 14 14 15 15 15 15 13 9 8 10 12 12 11 12 12 11 11 10 10 10 11 12 12 12 13 13 13 12 13
7 9 11 10 6 2 2 3 6 9 12 13 15 16 16 16 17 19 20 22 23 23 23 24 23 23 21 19 18 18 20 22 23 24 25 25 25 24 23 23 21 20 18 18 16 15 14 13 13 13 13 13 13 13 13 13 13 13 14 14 14 15 16 15 14 14 15 16 16 16 16 15 14 13 12 13 13 14 14 14 14 14 14 14 13
7 9 9 8 4 1 3 3 5 9 13 16 19 20 21 22 23 23 23 24 24 23 23 24 26 27 25 23 21 21 22 24 24 24 24 23 23 22 21 20 19 17 16 14 13 13 12 11 11 10 10 10 10 11 11 12 13 13 14 14 15 16 17 17 17 18 18 18 19 19 20 19 18 17 16 16 16 16 17 17 16 17 17 16 14
4 5 6 5 2 2 6 7 8 11 15 18 21 22 23 23 22 23 23 24 24 24 25 26 27 26 24 23 22 23 23 24 23 23 23 22 21 20 19 18 17 16 14 12 11 10 9 9 9 9 9 9 9 10 12 13 14 14 15 16 17 18 18 19 20 20 21 21 22 23 23 24 24 24 22 20 19 18 18 17 17 17 17 16 14
5 5 5 3 1 5 8 11 12 14 16 20 22 23 24 23 22 22 24 25 25 26 26 25 24 22 22 23 24 24 24 23 22 22 21 20 20 19 18 17 16 15 13 12 11 10 10 9 9 10 10 10 11 12 14 15 15 16 17 17 18 19 19 20 20 21 21 22 23 23 24 26 27 26 23 19 18 19 19 18 16 16 16 16 16
8 6 5 4 4 6 9 13 15 16 18 20 22 23 24 24 24 24 25 25 25 25 25 23 22 22 23 23 24 24 23 22 22 21 20 19 19 18 17 16 15 14 13 12 12 11 10 10 10 10 11 11 11 12 13 14 14 14 14 14 14 15 16 16 18 19 20 20 21 23 24 24 24 24 23 20 20 21 20 18 16 14 15 16 17
6 5 3 2 4 7 10 13 16 18 20 21 22 22 22 23 23 24 24 24 24 24 23 22 22 22 22 22 22 21 21 20 19 18 17 16 14 14 14 13 13 12 12 12 11 11 10 9 9 9 9 9 9 9 10 11 11 11 11 11 12 14 14 15 16 16 17 17 17 18 18 17 16 17 17 18 18 18 19 19 18 16 15 16 16
7 5 5 6 8 10 12 15 17 19 20 21 21 20 21 22 21 21 22 22 22 21 21 21 22 21 20 20 19 18 17 16 15 14 13 12 11 11 10 10 10 10 10 9 8 8 7 6 6 6 6 6 6 7 8 8 8 9 10 11 12 12 12 11 11 11 11 11 12 11 11 11 11 10 10 11 13 15 17 18 18 17 16 16 16
8 8 8 10 11 13 15 17 19 20 21 21 21 20 20 20 19 18 18 19 19 19 19 19 19 19 19 18 17 16 15 15 14 14 13 12 11 10 10 9 8 7 6 6 5 5 4 4 4 4 4 5 5 6 7 7 7 8 8 8 8 8 8 8 9 9 10 10 11 10 9 10 11 10 10 11 13 14 15 16 17 17 18 18 18
Wind_Direction
215 216 216 217 219 220 220 220 221 222 222 223 225 227 228 229 231 231 231 232 232 231 229 228 230 231 232 232 232 233 234 234 236 238 238 237 237 239 240 242 246 249 249 248 249 250 249 248 249 251 251 252 256 259 262 266 271 273 278 281 284 288 290 288 289 293 295 293 292 292 291 289 289 291 292 293 295 295 293 291 290 291 292 294 297
216 217 216 218 219 219 219 220 220 220 221 223 224 225 227 228 229 229 230 230 230 230 229 228 228 229 230 231 230 231 233 234 234 236 238 239 238 238 240 242 244 248 250 250 251 254 254 253 253 253 253 253 254 258 260 260 262 266 271 276 279 281 285 287 287 290 294 295 296 297 298 298 299 300 300 300 299 299 299 299 300 300 301 303 305
215 216 216 217 218 218 219 220 219 219 219 221 223 224 225 226 226 226 227 227 227 228 228 228 228 228 229 231 230 231 233 233 233 234 237 239 239 239 240 242 244 246 250 252 252 254 255 255 254 256 258 256 253 255 258 258 257 259 262 268 273 276 280 285 286 287 291 293 294 295 297 298 299 301 303 303 304 303 301 301 303 305 308 310 310
211 216 217 216 217 218 218 219 219 219 219 221 222 222 223 224 224 224 223 224 225 226 226 227 229 229 229 230 231 231 232 233 232 233 235 238 239 239 240 242 242 243 247 251 251 250 252 253 253 256 258 259 258 256 257 260 261 263 265 267 271 274 277 281 285 287 289 290 292 294 294 293 294 297 300 301 303 305 304 305 307 309 310 310 310
205 213 217 216 216 217 217 218 219 219 218 220 220 221 220 221 224 224 221 221 223 224 224 225 227 229 229 230 232 233 233 233 233 233 235 236 237 239 241 242 242 243 246 250 251 250 250 251 251 254 258 259 260 259 260 262 263 265 268 270 274 278 279 281 284 286 287 289 291 293 293 294 295 296 298 300 303 304 306 309 311 311 311 310 309
201 208 215 217 217 218 217 217 218 218 218 218 218 219 217 217 222 224 222 219 221 223 224 224 226 229 230 231 233 234 234 234 233 233 234 236 236 237 239 241 242 244 246 249 251 252 253 254 253 254 257 258 259 261 263 264 266 268 270 272 276 280 282 283 283 283 284 286 288 290 291 294 297 299 301 303 304 306 308 309 310 311 311 309 307
198 203 211 216 217 218 217 217 217 217 218 218 217 217 217 215 218 222 222 220 221 223 224 225 226 228 231 232 233 235 236 235 235 234 234 235 236 236 237 240 242 245 247 250 252 254 255 256 255 254 255 256 258 261 264 266 268 270 273 276 279 281 283 284 283 280 280 282 286 288 291 293 295 297 300 300 300 306 311 311 309 308 307 307 308
198 202 209 213 216 218 217 216 216 217 218 218 217 217 216 214 215 220 223 222 221 222 224 226 227 228 230 232 234 235 236 237 237 236 235 235 236 237 237 239 242 246 248 250 252 253 255 257 257 257 257 256 256 260 264 268 271 274 276 279 280 281 282 283 282 280 277 276 280 284 288 291 291 293 297 295 293 303 312 311 307 306 308 309 308
197 201 208 214 217 218 216 216 216 216 217 218 218 218 218 217 217 221 224 223 221 221 222 225 227 229 230 231 232 234 236 237 238 238 237 236 236 237 239 240 242 245 248 250 252 253 255 256 258 260 260 259 258 260 264 268 271 274 276 278 279 280 280 281 281 280 276 272 272 276 280 283 284 287 291 288 289 299 303 301 304 310 310 307 304
198 202 209 216 218 217 216 216 216 216 216 217 218 218 220 221 222 224 226 225 222 222 222 223 226 229 231 231 231 233 235 238 239 240 239 238 237 237 239 241 243 244 247 250 252 254 255 256 257 259 260 261 261 262 264 267 269 271 272 273 275 275 277 278 276 276 276 271 268 270 272 275 277 280 282 283 288 291 289 294 305 311 309 305 303
202 207 212 215 216 217 217 217 217 216 216 217 218 218 220 222 224 226 227 226 224 224 224 225 226 227 231 233 233 234 236 239 241 241 240 239 238 238 239 241 243 245 247 249 252 253 255 257 258 259 260 261 263 263 264 266 268 270 270 270 270 270 271 272 272 273 273 270 267 267 269 272 274 277 280 280 275 272 281 298 304 306 304 301 298
204 210 212 212 215 218 218 217 217 217 216 217 218 218 219 222 224 226 226 226 226 226 226 227 228 227 229 233 234 235 237 239 241 242 241 239 238 238 239 240 243 246 248 250 252 253 254 255 257 259 261 262 262 263 264 265 266 268 270 270 269 267 266 266 267 269 268 267 267 266 267 271 274 277 279 279 276 275 285 299 299 297 294 291 291
203 209 210 212 217 220 219 217 217 217 217 217 217 218 219 221 224 225 226 227 228 228 228 230 231 230 230 232 234 235 237 239 241 241 240 239 237 237 238 240 243 246 248 250 251 252 254 255 256 258 259 261 262 264 265 266 268 270 271 270 268 266 265 265 264 265 267 267 267 265 268 273 277 280 281 284 288 290 294 295 292 290 287 287 292
200 207 210 214 219 221 219 219 217 217 217 216 217 217 218 220 222 225 227 229 230 230 231 232 233 233 232 233 234 235 235 238 241 241 239 238 236 235 237 240 243 246 248 250 251 251 253 254 255 256 257 259 262 264 265 268 270 272 273 273 272 270 268 266 264 265 266 266 267 268 271 276 281 284 287 291 288 287 296 297 290 287 288 291 296
197 205 211 216 219 220 220 219 219 218 218 217 217 217 218 220 222 224 227 229 231 232 232 234 235 236 235 235 236 236 235 237 240 240 239 237 235 234 236 239 243 245 247 249 250 251 252 253 255 256 257 259 261 263 266 268 270 271 272 272 273 273 271 270 269 268 267 266 269 271 270 275 284 288 291 292 282 281 300 300 291 290 293 295 298
196 205 213 218 219 219 219 219 219 219 218 217 217 218 219 220 221 223 225 228 231 233 234 235 236 238 238 238 237 237 237 238 239 239 238 235 234 234 235 238 241 244 246 248 249 250 251 253 254 256 257 259 261 262 265 267 268 269 268 267 268 269 270 271 273 275 274 271 273 277 277 279 285 287 290 289 285 292 311 297 286 290 296 297 300
202 210 217 219 219 219 218 218 218 218 218 218 218 218 219 220 221 222 224 227 230 233 235 235 236 238 239 240 240 240 240 241 240 239 237 235 234 234 236 238 240 242 244 246 248 250 251 252 253 256 257 259 261 262 264 264 263 263 263 264 265 266 268 269 271 277 282 282 282 284 286 289 290 289 290 292 292 302 308 294 288 298 302 303 307
209 216 220 219 219 218 218 218 218 218 218 218 218 219 220 221 221 222 224 226 229 233 234 235 236 238 239 241 241 241 241 242 243 241 239 237 235 235 236 238 239 241 243 245 247 249 251 252 253 254 256 258 260 262 262 261 258 257 258 260 263 266 268 267 268 273 279 282 282 282 286 292 292 289 293 296 297 300 299 294 299 307 304 304 307
214 218 219 218 217 217 217 217 217 218 219 219 219 220 221 221 221 222 224 226 229 231 234 235 237 238 240 241 242 242 242 244 245 244 242 240 238 237 237 238 239 240 242 244 246 248 250 252 253 254 255 257 259 260 261 258 253 252 255 259 263 265 266 268 271 271 272 273 275 278 285 291 292 295 301 301 299 303 302 301 304 303 301 302 304
218 218 217 216 215 215 215 215 216 218 220 221 221 222 221 221 221 222 223 225 228 231 233 235 237 239 241 242 243 243 243 243 245 245 243 242 239 237 237 239 240 241 242 244 246 247 250 251 253 255 255 256 257 259 257 253 249 249 251 254 258 262 264 265 264 262 264 269 273 278 282 286 294 302 305 299 300 312 311 307 305 302 304 305 305
218 216 215 214 213 213 213 213 215 217 220 222 223 223 223 223 223 224 224 226 229 231 233 235 238 240 242 243 244 244 243 243 244 245 244 242 240 238 238 239 240 242 244 245 246 247 249 251 253 255 255 255 254 253 251 247 245 245 246 248 254 261 264 265 262 262 268 275 278 280 285 292 300 303 296 292 304 312 308 307 310 310 308 304 300
216 215 212 211 210 210 211 212 214 217 220 221 222 224 225 225 227 228 228 229 231 232 235 237 238 239 241 243 245 246 246 245 244 245 245 243 240 238 238 239 240 242 244 246 247 248 250 252 254 255 256 255 250 244 242 241 240 242 245 248 253 258 262 264 267 271 277 281 283 286 292 297 300 296 284 290 294 287 286 290 295 297 295 290 288
215 212 208 207 208 208 209 211 213 215 218 219 221 223 225 227 229 231 230 230 232 234 235 236 237 238 239 241 243 245 246 246 244 243 244 243 240 238 237 237 239 240 242 245 247 248 250 252 253 255 254 251 243 235 234 235 238 242 245 249 253 256 260 264 268 274 279 282 286 290 293 295 293 280 287 295 294 291 294 294 293 296 297 297 298
213 210 207 206 207 208 210 212 213 215 218 220 222 224 226 228 230 232 232 232 232 233 234 232 231 232 233 234 235 236 238 241 241 241 241 240 239 237 235 234 235 237 239 241 242 245 247 247 247 250 249 244 235 232 232 233 237 242 245 249 253 255 259 264 268 273 278 283 288 292 292 286 278 283 292 300 304 307 313 316 317 318 317 317 317
211 209 207 206 208 210 211 212 214 217 219 222 224 225 226 228 231 232 233 232 232 233 234 231 229 229 227 227 230 231 232 236 240 241 240 237 236 236 235 233 233 234 235 236 236 236 236 236 239 242 243 239 234 233 234 233 236 242 245 248 252 255 258 262 266 273 280 284 287 288 277 269 283 295 302 306 312 317 322 325 326 326 328 330 329
210 208 208 207 208 209 210 212 214 216 218 220 223 224 224 226 229 230 231 231 232 232 230 227 230 232 229 225 227 230 231 234 238 242 240 236 235 236 236 234 232 232 233 234 234 234 234 236 240 241 240 238 236 236 237 237 237 241 245 247 250 254 257 262 269 276 280 280 278 273 268 277 293 303 307 311 318 323 325 327 331 334 338 340 340
208 206 205 204 204 205 207 208 210 212 215 216 218 222 223 224 227 229 229 230 232 232 231 227 228 230 227 224 226 229 231 235 240 244 244 241 238 237 237 237 234 231 231 231 232 234 236 236 238 240 237 235 235 237 239 239 238 240 245 248 251 256 263 270 275 275 272 269 268 270 276 288 298 305 312 319 324 326 329 335 343 346 345 347 351
207 204 202 201 201 203 205 206 205 207 213 214 214 218 223 224 225 229 230 230 231 232 233 231 226 223 223 225 227 228 230 236 239 240 243 245 245 242 240 238 236 234 233 232 232 234 236 234 233 235 235 234 236 240 240 239 241 244 248 251 257 263 269 270 266 262 261 265 270 275 284 294 300 308 319 324 325 332 342 349 356 358 358 2 6
205 204 202 202 204 204 205 208 206 204 209 214 215 216 219 219 221 224 228 232 233 231 231 232 232 229 228 228 229 228 230 235 236 238 244 250 254 252 246 240 237 236 235 234 231 231 233 232 231 233 236 236 238 241 243 244 246 250 253 259 265 266 261 254 250 252 259 265 271 278 287 298 305 313 321 325 334 351 0 4 9 12 13 17 17
203 204 202 203 207 208 207 210 210 207 206 209 217 221 220 219 221 220 221 227 231 230 227 227 228 229 227 227 229 232 235 238 240 247 256 259 257 255 251 243 235 229 227 226 225 225 229 232 232 234 236 237 239 244 248 249 250 253 257 261 258 246 235 236 243 249 254 260 270 282 292 302 308 314 325 341 1 12 14 16 20 20 21 24 22
206 207 205 203 207 210 209 209 211 212 208 206 217 227 226 224 227 228 226 228 231 233 232 228 225 226 228 228 231 235 239 242 246 253 259 255 243 238 239 235 227 221 217 217 221 224 226 229 231 235 238 240 243 244 245 247 251 254 251 243 231 221 224 235 240 243 251 264 277 285 292 299 305 318 345 8 19 21 19 21 24 24 23 24 22
205 207 207 208 211 213 212 211 214 218 214 208 215 227 229 229 231 232 231 233 235 237 239 237 234 233 234 235 237 240 243 245 246 246 244 239 232 229 228 225 221 216 213 213 216 220 221 223 231 236 237 236 234 233 234 240 244 238 222 214 215 219 225 231 233 239 253 266 275 282 286 291 299 332 10 16 22 23 21 21 22 21 20 19 17
196 198 202 208 212 213 212 210 211 215 214 214 220 227 231 233 235 235 235 236 238 240 244 245 244 242 241 241 242 244 245 243 240 234 228 222 220 220 221 220 217 214 213 213 215 216 217 221 229 232 232 230 228 229 232 232 222 207 200 206 215 220 223 228 235 246 256 260 266 273 275 279 302 10 16 16 21 20 19 20 18 16 17 16 14
184 193 198 200 204 207 208 207 211 215 220 226 230 232 234 235 235 238 240 238 238 240 242 244 246 245 243 242 242 242 240 235 229 226 221 215 213 214 215 215 216 214 213 215 216 217 221 227 232 234 236 235 229 223 220 214 203 197 199 205 209 214 222 229 235 244 250 251 252 249 236 225 195 44 22 18 22 21 19 18 13 12 15 16 14
192 205 210 209 208 210 211 214 222 226 228 230 232 233 234 233 230 232 236 234 234 237 239 241 244 244 242 240 238 237 233 226 220 219 218 214 214 214 212 213 215 216 218 220 221 223 227 232 233 231 228 223 217 213 210 203 195 193 198 204 210 217 224 226 227 229 226 220 225 224 215 220 357 32 15 9 15 18 15 12 9 10 12 14 14
200 215 219 216 211 211 215 216 219 222 225 226 226 225 224 222 217 217 220 224 229 234 236 237 238 238 236 234 232 230 226 219 215 215 214 213 215 216 215 215 217 219 222 224 225 224 224 221 216 211 206 204 206 205 198 188 182 185 200 214 220 223 224 225 228 226 213 207 216 217 206 227 349 25 18 4 10 12 6 6 6 1 3 10 15
173 178 192 199 197 201 210 212 210 213 216 214 209 203 198 200 208 215 219 222 226 228 227 226 228 229 227 225 223 221 217 213 212 211 209 210 215 218 218 218 220 221 221 219 217 215 209 200 195 196 196 194 193 189 181 178 180 190 207 219 221 217 216 219 224 221 207 204 214 215 207 244 329 6 9 0 3 1 357 2 1 352 354 4 9
171 175 179 182 183 192 202 200 195 199 202 197 194 195 196 199 205 210 212 212 211 211 210 210 212 215 215 213 210 210 209 208 207 205 204 209 217 220 218 215 217 218 214 204 195 195 193 185 181 183 184 182 182 180 176 179 188 197 205 213 218 217 215 216 217 210 196 196 212 222 222 266 322 348 356 357 355 350 349 352 351 348 350 355 357
147 165 169 168 169 180 189 190 188 190 193 195 199 200 198 198 198 198 197 196 193 192 193 193 193 197 203 203 200 201 202 201 198 194 194 198 205 207 203 200 202 201 194 183 178 180 183 180 177 175 172 171 174 178 180 187 196 199 200 205 211 210 206 204 207 204 194 192 209 222 230 265 307 334 348 346 340 342 345 345 342 341 341 340 342
80 107 127 142 163 177 182 183 184 184 186 191 197 198 198 198 195 190 188 188 183 177 175 177 179 182 184 184 183 183 186 188 188 183 180 180 180 178 178 183 186 181 173 169 170 172 174 175 174 172 170 172 178 186 192 196 198 198 198 198 199 198 195 193 194 196 198 204 217 233 256 278 305 330 335 320 325 339 342 335 331 332 332 330 331
57 71 93 110 152 180 183 183 183 182 182 186 192 197 200 199 196 193 192 187 179 174 174 175 175 174 173 173 173 175 178 180 180 176 174 174 172 168 164 165 167 164 159 158 160 164 168 172 174 176 179 182 186 191 194 194 193 195 196 194 190 187 190 196 199 201 206 216 230 246 258 269 287 304 308 311 324 332 326 316 316 319 322 323 323
54 61 71 72 77 181 179 176 176 177 178 180 184 188 189 189 193 195 189 180 177 180 180 175 169 165 165 165 168 175 183 186 183 180 178 179 177 172 168 165 164 161 159 159 161 166 171 176 178 181 184 187 189 192 194 195 195 194 194 194 193 187 184 194 210 216 219 226 238 250 257 268 285 300 308 313 314 309 302 302 307 308 311 314 315
33 46 54 52 34 1 177 169 167 168 168 168 169 169 168 171 178 181 177 173 174 177 174 166 159 158 162 165 172 181 187 185 181 179 177 175 173 171 170 169 168 166 165 166 168 169 172 175 178 180 184 187 191 194 196 200 204 204 204 208 209 205 204 213 228 233 234 239 248 258 266 275 283 288 292 293 294 293 293 296 298 297 298 302 305
15 23 38 45 32 338 241 174 158 156 155 154 154 154 154 158 164 166 166 166 166 166 162 157 154 154 156 162 172 179 178 172 169 169 168 166 165 166 165 166 167 169 169 168 167 167 171 175 178 181 185 189 193 197 201 204 207 211 215 218 219 221 225 233 241 245 248 254 260 266 271 275 277 279 283 286 288 290 290 290 292 291 290 291 294
26 22 28 36 29 293 225 182 154 151 150 149 149 150 152 155 158 157 156 156 158 159 158 155 154 154 156 161 168 170 166 162 161 161 161 161 162 164 164 165 168 171 172 172 171 173 176 180 183 187 193 198 203 210 215 217 218 221 225 228 231 234 238 242 247 252 257 261 266 269 272 274 275 276 277 279 280 281 282 283 285 284 282 281 282
32 28 22 22 33 188 191 181 169 162 159 155 152 151 151 150 150 152 154 157 159 161 160 158 158 160 162 164 165 163 160 158 158 158 159 160 162 163 165 167 170 172 173 174 175 177 180 186 193 199 207 214 220 225 230 232 233 234 236 239 243 247 250 254 259 262 265 267 270 272 274 275 276 276 277 278 279 280 280 279 278 277 276 275 273
326 343 350 340 267 189 183 181 178 174 170 165 160 157 156 155 155 157 160 160 160 161 160 160 161 162 162 162 162 162 161 161 162 162 164 165 167 169 171 173 175 177 178 180 182 184 188 196 204 211 215 221 228 232 236 240 243 244 247 250 254 257 261 264 266 268 269 270 272 274 274 274 276 277 278 278 276 273 272 272 272 272 273 273 272
309 321 329 307 255 208 188 184 184 181 176 173 170 166 164 164 163 163 163 163 162 162 162 162 161 159 158 159 161 163 165 167 169 170 172 174 175 178 179 180 181 183 185 188 192 195 199 206 215 222 229 235 242 248 253 255 256 256 257 261 264 267 271 273 273 273 273 273 274 275 276 277 279 280 280 278 273 267 263 264 267 269 270 272 272
296 299 296 253 218 201 189 186 187 184 180 177 176 172 169 167 166 165 166 167 166 166 166 165 162 160 160 162 163 165 167 168 169 169 171 173 175 179 181 183 185 188 191 195 199 203 208 216 226 234 239 243 249 256 261 263 262 264 270 276 280 281 282 281 279 279 278 278 279 281 283 285 287 287 287 286 283 277 270 268 268 268 269 269 269
275 256 222 195 189 189 189 189 190 189 186 184 181 177 172 170 169 168 169 169 167 166 164 162 161 161 162 163 163 162 162 164 165 166 168 171 174 177 180 181 182 186 189 191 194 197 200 208 220 229 235 242 250 257 263 266 269 274 279 280 280 281 282 280 281 284 287 291 294 295 297 298 300 300 299 297 294 289 282 276 271 268 267 267 266
251 230 210 197 191 191 191 190 190 190 188 186 183 178 173 170 169 168 167 166 165 163 161 161 162 164 164 165 165 164 163 164 165 165 166 166 165 165 165 163 162 163 165 165 168 175 182 196 216 233 247 255 259 262 265 267 271 277 280 280 282 287 292 296 300 302 304 307 308 306 303 303 304 303 303 301 299 296 292 285 280 276 273 271 270